• In Romania
  • List of Countries
  • For 7 days
  • Water Temperature
  • Satellite Maps
  • Weather Map
  • Weather Widgets
  • user-avatar
    Login

    Hourly Weather Sazonovo

    Today, 24 April, Tuesday

    Time Temperature Precipitation Wind Pressure Humidity
    00:00 +2°C° 0 mm 1 mps 743 mmHg 63%
    01:00 +2°C° 0 mm 1 mps 743 mmHg 64%
    02:00 +2°C° 0 mm 1 mps 743 mmHg 65%
    03:00 +1°C° 0 mm 2 mps 742 mmHg 66%
    04:00 +1°C° 0 mm 2 mps 742 mmHg 67%
    05:00 +1°C° 0 mm 2 mps 742 mmHg 68%
    06:00 +3°C° 0 mm 2 mps 741 mmHg 64%
    07:00 +4°C° 0 mm 3 mps 741 mmHg 61%
    08:00 +7°C° 0 mm 3 mps 741 mmHg 57%
    09:00 +8°C° 0 mm 3 mps 741 mmHg 56%
    10:00 +9°C° 0 mm 3 mps 740 mmHg 55%
    11:00 +11°C° 0 mm 4 mps 740 mmHg 54%
    12:00 +10°C° 0.1 mm 4 mps 740 mmHg 59%
    13:00 +10°C° 0.1 mm 4 mps 739 mmHg 64%
    14:00 +10°C° 0.1 mm 4 mps 739 mmHg 69%
    15:00 +8°C° 0.1 mm 4 mps 739 mmHg 72%
    16:00 +9°C° 0.1 mm 3 mps 739 mmHg 76%
    17:00 +8°C° 0.1 mm 3 mps 738 mmHg 80%
    18:00 +8°C° 0 mm 3 mps 738 mmHg 84%
    19:00 +7°C° 0 mm 2 mps 738 mmHg 87%
    20:00 +6°C° 0 mm 2 mps 738 mmHg 91%
    21:00 +7°C° 0.1 mm 2 mps 737 mmHg 92%
    22:00 +7°C° 0.1 mm 2 mps 737 mmHg 93%
    23:00 +7°C° 0.1 mm 2 mps 737 mmHg 94%

    Tomorrow, 25 April, Wednesday

    Time Temperature Precipitation Wind Pressure Humidity
    00:00 +7°C° 0.2 mm 2 mps 737 mmHg 94%
    01:00 +7°C° 0.2 mm 2 mps 737 mmHg 95%
    02:00 +6°C° 0.2 mm 2 mps 737 mmHg 96%
    03:00 +6°C° 0 mm 2 mps 737 mmHg 95%
    04:00 +5°C° 0 mm 2 mps 737 mmHg 95%
    05:00 +5°C° 0 mm 2 mps 736 mmHg 95%
    06:00 +4°C° 0.1 mm 3 mps 736 mmHg 92%
    07:00 +5°C° 0.1 mm 3 mps 736 mmHg 88%
    08:00 +6°C° 0.1 mm 4 mps 736 mmHg 84%
    09:00 +7°C° 0.2 mm 4 mps 736 mmHg 81%
    10:00 +8°C° 0.2 mm 4 mps 736 mmHg 77%
    11:00 +10°C° 0.2 mm 4 mps 736 mmHg 74%
    12:00 +9°C° 0.2 mm 5 mps 736 mmHg 69%
    13:00 +10°C° 0.2 mm 5 mps 736 mmHg 64%
    14:00 +12°C° 0.2 mm 5 mps 735 mmHg 60%
    15:00 +10°C° 0.1 mm 5 mps 735 mmHg 61%
    16:00 +10°C° 0.1 mm 5 mps 735 mmHg 62%
    17:00 +10°C° 0.1 mm 4 mps 735 mmHg 63%
    18:00 +8°C° 0 mm 4 mps 736 mmHg 69%
    19:00 +7°C° 0 mm 3 mps 736 mmHg 75%
    20:00 +6°C° 0 mm 2 mps 736 mmHg 82%
    21:00 +6°C° 0 mm 2 mps 736 mmHg 83%
    22:00 +5°C° 0 mm 2 mps 736 mmHg 85%
    23:00 +5°C° 0 mm 2 mps 736 mmHg 87%

    Day after tomorrow, 26 April, Thursday

    Time Temperature Precipitation Wind Pressure Humidity
    00:00 +5°C° 0 mm 2 mps 736 mmHg 89%
    01:00 +5°C° 0 mm 2 mps 736 mmHg 90%
    02:00 +4°C° 0 mm 2 mps 736 mmHg 92%
    03:00 +4°C° 0.1 mm 2 mps 735 mmHg 93%
    04:00 +4°C° 0.1 mm 2 mps 735 mmHg 95%
    05:00 +4°C° 0.1 mm 2 mps 735 mmHg 96%
    06:00 +5°C° 0.1 mm 2 mps 735 mmHg 90%
    07:00 +6°C° 0.1 mm 2 mps 735 mmHg 83%
    08:00 +8°C° 0.1 mm 2 mps 735 mmHg 77%
    09:00 +9°C° 0 mm 3 mps 735 mmHg 68%
    10:00 +11°C° 0 mm 3 mps 735 mmHg 60%
    11:00 +12°C° 0 mm 4 mps 735 mmHg 51%
    12:00 +13°C° 0.1 mm 4 mps 736 mmHg 48%
    13:00 +13°C° 0.1 mm 4 mps 736 mmHg 46%
    14:00 +14°C° 0.1 mm 4 mps 736 mmHg 43%
    15:00 +14°C° 0.1 mm 4 mps 736 mmHg 45%
    16:00 +13°C° 0.1 mm 4 mps 737 mmHg 47%
    17:00 +13°C° 0.1 mm 4 mps 737 mmHg 49%
    18:00 +11°C° 0.1 mm 3 mps 737 mmHg 57%
    19:00 +10°C° 0.1 mm 3 mps 737 mmHg 65%
    20:00 +8°C° 0.1 mm 2 mps 738 mmHg 73%
    21:00 +7°C° 0 mm 2 mps 738 mmHg 77%
    22:00 +7°C° 0 mm 2 mps 738 mmHg 80%
    23:00 +6°C° 0 mm 2 mps 739 mmHg 83%

    27 April, Friday

    Time Temperature Precipitation Wind Pressure Humidity
    00:00 +6°C° 0 mm 2 mps 739 mmHg 85%
    01:00 +5°C° 0 mm 2 mps 739 mmHg 86%
    02:00 +5°C° 0 mm 2 mps 739 mmHg 88%
    03:00 +5°C° 0 mm 2 mps 739 mmHg 90%
    04:00 +5°C° 0 mm 2 mps 739 mmHg 92%
    05:00 +5°C° 0 mm 2 mps 739 mmHg 93%
    06:00 +5°C° 0 mm 3 mps 739 mmHg 85%
    07:00 +8°C° 0 mm 3 mps 740 mmHg 77%
    08:00 +9°C° 0 mm 3 mps 740 mmHg 68%
    09:00 +10°C° 0 mm 4 mps 740 mmHg 62%
    10:00 +11°C° 0 mm 4 mps 740 mmHg 56%
    11:00 +12°C° 0 mm 5 mps 740 mmHg 49%
    12:00 +12°C° 0.2 mm 5 mps 741 mmHg 49%
    13:00 +13°C° 0.2 mm 5 mps 741 mmHg 49%
    14:00 +13°C° 0.2 mm 5 mps 741 mmHg 49%
    15:00 +12°C° 0.2 mm 5 mps 741 mmHg 50%
    16:00 +12°C° 0.2 mm 4 mps 741 mmHg 52%
    17:00 +12°C° 0.2 mm 4 mps 742 mmHg 54%
    18:00 +10°C° 0.1 mm 3 mps 742 mmHg 61%
    19:00 +9°C° 0.1 mm 3 mps 743 mmHg 69%
    20:00 +7°C° 0.1 mm 2 mps 743 mmHg 77%
    21:00 +6°C° 0 mm 2 mps 744 mmHg 80%
    22:00 +6°C° 0 mm 2 mps 744 mmHg 84%
    23:00 +5°C° 0 mm 2 mps 745 mmHg 87%

    28 April, Saturday

    Time Temperature Precipitation Wind Pressure Humidity
    00:00 +5°C° 0 mm 2 mps 745 mmHg 90%
    01:00 +4°C° 0 mm 2 mps 745 mmHg 92%
    02:00 +4°C° 0 mm 2 mps 746 mmHg 94%
    03:00 +4°C° 0 mm 2 mps 746 mmHg 95%
    04:00 +3°C° 0 mm 2 mps 746 mmHg 95%
    05:00 +3°C° 0 mm 2 mps 747 mmHg 96%
    06:00 +5°C° 0 mm 2 mps 747 mmHg 88%
    07:00 +6°C° 0 mm 2 mps 747 mmHg 80%
    08:00 +8°C° 0 mm 3 mps 748 mmHg 71%
    09:00 +9°C° 0 mm 3 mps 748 mmHg 64%
    10:00 +10°C° 0 mm 3 mps 748 mmHg 56%
    11:00 +12°C° 0 mm 3 mps 748 mmHg 48%
    12:00 +12°C° 0 mm 3 mps 748 mmHg 45%
    13:00 +13°C° 0 mm 3 mps 748 mmHg 42%
    14:00 +14°C° 0 mm 3 mps 747 mmHg 38%
    15:00 +14°C° 0 mm 3 mps 747 mmHg 41%
    16:00 +14°C° 0 mm 3 mps 747 mmHg 44%
    17:00 +13°C° 0 mm 3 mps 747 mmHg 46%
    18:00 +12°C° 0.1 mm 3 mps 746 mmHg 52%
    19:00 +11°C° 0.1 mm 3 mps 746 mmHg 59%
    20:00 +10°C° 0.1 mm 3 mps 746 mmHg 65%
    21:00 +9°C° 0.2 mm 3 mps 746 mmHg 69%
    22:00 +9°C° 0.2 mm 3 mps 746 mmHg 72%
    23:00 +9°C° 0.2 mm 3 mps 746 mmHg 76%

    29 April, Sunday

    Time Temperature Precipitation Wind Pressure Humidity
    00:00 +8°C° 0.4 mm 2 mps 746 mmHg 82%
    01:00 +8°C° 0.4 mm 2 mps 746 mmHg 87%
    02:00 +9°C° 0.4 mm 1 mps 745 mmHg 92%
    03:00 +9°C° 0.2 mm 1 mps 745 mmHg 94%
    04:00 +8°C° 0.2 mm 1 mps 746 mmHg 95%
    05:00 +8°C° 0.2 mm 1 mps 746 mmHg 96%
    06:00 +8°C° 0 mm 2 mps 746 mmHg 90%
    07:00 +8°C° 0 mm 2 mps 746 mmHg 84%
    08:00 +9°C° 0 mm 2 mps 746 mmHg 78%
    09:00 +10°C° 0 mm 2 mps 746 mmHg 69%
    10:00 +13°C° 0 mm 2 mps 746 mmHg 60%
    11:00 +14°C° 0 mm 2 mps 746 mmHg 51%
    12:00 +13°C° 0 mm 3 mps 746 mmHg 47%
    13:00 +14°C° 0 mm 3 mps 746 mmHg 43%
    14:00 +16°C° 0 mm 3 mps 746 mmHg 38%
    15:00 +14°C° 0 mm 3 mps 746 mmHg 39%
    16:00 +15°C° 0 mm 2 mps 746 mmHg 40%
    17:00 +15°C° 0 mm 2 mps 746 mmHg 41%
    18:00 +13°C° 0 mm 2 mps 746 mmHg 49%
    19:00 +11°C° 0 mm 1 mps 747 mmHg 57%
    20:00 +9°C° 0 mm 1 mps 747 mmHg 65%
    21:00 +8°C° 0 mm 1 mps 747 mmHg 67%
    22:00 +8°C° 0 mm 1 mps 747 mmHg 70%
    23:00 +6°C° 0 mm 0 mps 748 mmHg 72%
    Show more